Погода в Мерсрагсе

Погода в Мерсрагсе : погода сейчас, прогноз погоды и архив. Всё, что Вы хотите узнать о погоде в Мерсрагсе!

Поиск расширенной информации на нашем сайте:

Другие новости

Новости СМИ2

Главная страница сайта

Новости сайта

03.07.2017

Напоминаем, что на нашем специализированном сайте Метеоцентр.Азия вы можете получить высокодетализированные автоматические прогнозы погоды по пунктам России, СНГ и мира в авиационном формате (включающие направление и скорость ветра, видимость, явления погоды, количество и форму облачности, нижнюю и верхнюю границу облачности).


Погода в Мерсрагсе - сегодня

Время (UTC), дата Ветер
(°,м/с) 
Видим.   Явления Облачность Т
(°С)
Тd
(°С)
f(%) Тe
(°С)
Pmin
(гПа)
dP
(гПа)
Po
(мм)
O2
(г/м3)
Тmin Tmax R s Состояние
почвы
18 06.02.18 200 (Ю) 2-2  н/о    н/о 
-5.5 -6.3 94 -7  1010.8  0.3  758  312           
21 06.02.18 190 (Ю) 3-5  н/о    н/о 
-4.1 -4.8 95 -6  1011.4  758  311           
00 07.02.18 210 (ЮЗ) 3-4  н/о    н/о 
-3.8 -5 91 -6  1012.7  1.3  759  311           
03 07.02.18 210 (ЮЗ) 4-6  н/о    н/о 
-3.8 -5.6 87 -7  1013.7  760  311           
06 07.02.18 200 (Ю) 3-6  н/о    н/о 
-4.4 -6.9 83 -7  1015  1.3  761  312           
09 07.02.18 190 (Ю) 3-6  н/о    н/о 
-3.5 -5.9 83 -6  1016.6  1.5  762  312           
12 07.02.18 210 (ЮЗ) 3-5  н/о    н/о 
-1.3 -4.5 79 -3  1017.4  0.9  762  309           
15 07.02.18 190 (Ю) 2-4  н/о    н/о 
-1.2 -3.7 83 -2  1018.4  763  309           
18 07.02.18 200 (Ю) 3-5  н/о    н/о 
-2.7 -4.7 86 -5  1019.4  764  311           
21 07.02.18 180 (Ю) 2-4  н/о    н/о 
-5.6 -6.5 93 -7  1020.4  765  315           
00 08.02.18 190 (Ю) 3-5  н/о    н/о 
-6.4 -9.1 81 -9  1021  0.7  765  317           
03 08.02.18 170 (Ю) 3-4  н/о    н/о 
-8.6 -11.1 82 -11  1020.7  765  319           
06 08.02.18 170 (Ю) 1-2  н/о    н/о 
-11.3 -12.8 89 -11  1021.2  0.5  765  323           
09 08.02.18 180 (Ю) 2-5  н/о    н/о 
-9.7 -12.2 82 -11  1021.7  0.5  766  321           
15 08.02.18 160 (Ю) 2-3  н/о    н/о 
-7.2 -8.9 88 -9  1021.2  765  318           
18 08.02.18 160 (Ю) 1-3  н/о    н/о 
-6.7 -8 90 -6  1021.2  765  317           
21 08.02.18 160 (Ю) 1-2  н/о    н/о 
-6 -7.4 90 -6  1021.4  0.3  765  316           
00 09.02.18 010 (С) 1-2  н/о    н/о 
-5.5 -7.2 88 -5  1021.6  0.1  766  316           
03 09.02.18 170 (Ю) 1-2  н/о    н/о 
-5.3 -6.5 91 -5  1021.7  0.1  766  315           
06 09.02.18 180 (Ю) 1-2  н/о    н/о 
-4.8 -5.2 97 -4  1021.8  766  315           
09 09.02.18 130 (ЮВ) 1-2  н/о    н/о 
-4.4 -4.9 96 -4  1022.5  0.7  766  314           
12 09.02.18 140 (ЮВ) 1-3  н/о    н/о 
-3.2 -3.8 96 -3  1022.6  766  313           
15 09.02.18 090 (В) 2-4  н/о    н/о 
-3.5 -4.4 93 -5  1022.6  -0.1  766  313           
18 09.02.18 060 (СВ) 2-2  н/о    н/о 
-4.9 -7 85 -6  1023.1  0.4  767  315           
09 22.02.18 200 (Ю) 2-3  н/о    н/о 
-7.8 -10.9 78 -9  1032  0.7  773  322           
Время (UTC), дата Ветер
(°,м/с) 
Видим.   Явления Облачность Т
(°С)
Тd
(°С)
f(%) Тe
(°С)
Pmin
(гПа)
dP
(гПа)
Po
(мм)
O2
(г/м3)
Тmin Tmax R s Состояние
почвы

Для получения пояснительной информации подведите курсор к названию столбца.

ПОГОДА в Мерсрагсе - архив

Всё, что Вы хотите узнать о погоде в Мерсрагсе - удобно и подробно!

Выберите нужную дату (начиная с 1 января 2015* года) и нажмите кнопку "Найти".
Будут отображены архивные сводки погоды по пункту Мерсрагс, начиная с указанной даты.


Отображать данные в формате CSV (для использования в таблицах Excel)


Внимание! Наш архив погоды предназначен исключительно для личного некоммерческого использования в познавательных целях. Если Вам необходимы официальные справки о состоянии погоды (для производственных, юридических, коммерческих и т.п. целей), обращайтесь в органы Росгидромета.

*Примечание: данная дата относится к архиву по метеостанциям СССР (Россия, СНГ, Балтия).
Архив по метеостанциям Зарубежной Европы и Азии (кроме Китая) хранится 10 дней, по другим регионам земного шара (Китай, Африка, Америка, Австралия, Океания) - 1 день.

Мерсрагс - район местоположения метеостанции


Название, широта, долгота, высота метеостанции:
Мерсрагс 57.3°ш. 23.1°д. 6 м над ур. моря [Латвия]

Дополнительная информация

В oтличие oт бoльшинства пoгoдных сайтoв мы публикуем пoдрoбную метеoинфoрмацию в детальнoм прoфессиoнальнoм фoрмате.

Характеристики температуры и влажнoсти вoздуха измеряются на высoте 2 м в тени вдали oт зданий и деревьев.
Скoрoсть ветра измеряется на высoте 10 м (на урoвне рoста челoвека скoрoсть ветра ниже в 1.5-2 раза). Если метеoстанция нахoдится в гoрoде или в лесу, тo скoрoсть ветра занижена на 2-4 м/с пo сравнению с oткрытым местoм. Скoрoсть ветра над акватoриями крупных рек и oзёр, а также на вершинах хoлмoв на 2-5 м/с выше, чем в oбычных услoвиях.
Атмoсфернoе давление в разных тoчках местнoсти мoжет значительнo oтличаться oт давления на метеoстанции, в зависимoсти oт услoвий рельефа (при пoдъёме на 10 м давление пoнижается примернo на 1 мм рт.ст.).